TIANLIAN 2-01

Last updated on Thu Oct 30 2025 00:02:51 GMT+0000 (Coordinated Universal Time)

1 44076U 19017A 25302.48633111 -.00000098 00000+0 00000+0 0 9994 2 44076 0.0675 286.2572 0004063 300.9878 62.9721 1.00272298 24331
UTC large
Height (km)
Speed (km/s)
/
Latitude / Longitude
Inclination (degrees)
Orbital Period (minutes)
Azimuth
Elevation
Range (km)
Doppler Factor

Next 0 passes for location: London (51.5072 / 0.1276)

Sorry there are no passes over London.